JES3790 SABE-SGAS

Flight info

Callsign JES3790
Flight time 1h 47m
Altitude 37000
Route LANDA UN785 GUA UL793 DALAB UZ103 REPAM UP526 SAMGU
Aircraft A320/M-SDE3FGHIRWY/LB1

Departure

Time 2026-04-20 22:40
Airport Aeroparque Jorge Newbery (SABE)

Arrival

Time 2026-04-21 00:28
Airport Silvio Pettirossi International Airport (SGAS)
Time Latitude Longitude Altitude Speed Heading
2026-04-20 22:12 -34.56127 -58.41528 29 ft 0 kts 304°
2026-04-20 22:25 -34.56128 -58.41526 29 ft 2 kts 304°
2026-04-20 22:26 -34.56143 -58.41500 29 ft 4 kts 304°
2026-04-20 22:26 -34.56158 -58.41473 29 ft 4 kts 304°
2026-04-20 22:26 -34.56165 -58.41459 29 ft 0 kts 304°
2026-04-20 22:30 -34.56164 -58.41461 29 ft 1 kts 305°
2026-04-20 22:30 -34.56141 -58.41463 29 ft 5 kts 20°
2026-04-20 22:30 -34.56106 -58.41433 28 ft 7 kts 36°
2026-04-20 22:30 -34.56058 -58.41392 27 ft 9 kts 34°
2026-04-20 22:31 -34.56004 -58.41349 28 ft 9 kts 33°
2026-04-20 22:31 -34.55957 -58.41312 28 ft 7 kts 33°
2026-04-20 22:31 -34.55916 -58.41306 29 ft 5 kts 331°
2026-04-20 22:31 -34.55903 -58.41339 29 ft 5 kts 290°
2026-04-20 22:32 -34.55884 -58.41390 28 ft 7 kts 296°
2026-04-20 22:32 -34.55865 -58.41435 28 ft 5 kts 297°
2026-04-20 22:32 -34.55845 -58.41483 28 ft 9 kts 297°
2026-04-20 22:32 -34.55811 -58.41566 28 ft 12 kts 297°
2026-04-20 22:33 -34.55777 -58.41646 28 ft 9 kts 296°
2026-04-20 22:33 -34.55747 -58.41719 28 ft 12 kts 296°
2026-04-20 22:33 -34.55701 -58.41812 27 ft 12 kts 304°
2026-04-20 22:33 -34.55659 -58.41887 28 ft 9 kts 304°
2026-04-20 22:34 -34.55625 -58.41947 28 ft 10 kts 304°
2026-04-20 22:34 -34.55583 -58.42023 28 ft 11 kts 304°
2026-04-20 22:34 -34.55542 -58.42090 28 ft 8 kts 308°
2026-04-20 22:34 -34.55507 -58.42146 28 ft 10 kts 307°
2026-04-20 22:35 -34.55458 -58.42225 29 ft 13 kts 307°
2026-04-20 22:35 -34.55398 -58.42322 28 ft 16 kts 307°
2026-04-20 22:35 -34.55369 -58.42372 28 ft 0 kts 298°
2026-04-20 22:38 -34.55364 -58.42386 28 ft 6 kts 288°
2026-04-20 22:38 -34.55356 -58.42453 28 ft 9 kts 277°
2026-04-20 22:39 -34.55384 -58.42506 28 ft 8 kts 191°
2026-04-20 22:39 -34.55420 -58.42476 28 ft 0 kts 125°
2026-04-20 22:40 -34.55433 -58.42453 28 ft 22 kts 125°
2026-04-20 22:40 -34.55659 -58.42048 29 ft 91 kts 124°
2026-04-20 22:40 -34.56117 -58.41227 32 ft 140 kts 124°
2026-04-20 22:40 -34.56677 -58.40242 637 ft 137 kts 122°
2026-04-20 22:41 -34.57128 -58.39244 1283 ft 139 kts 115°
2026-04-20 22:41 -34.57472 -58.38043 1568 ft 163 kts 105°
2026-04-20 22:41 -34.57589 -58.36571 1855 ft 191 kts 90°
2026-04-20 22:41 -34.57370 -58.34872 2252 ft 219 kts 74°
2026-04-20 22:42 -34.56637 -58.33134 2817 ft 243 kts 54°
2026-04-20 22:42 -34.55841 -58.32163 3388 ft 249 kts 40°
2026-04-20 22:42 -34.54362 -58.31021 4355 ft 253 kts 33°
2026-04-20 22:42 -34.52276 -58.29614 5619 ft 261 kts 20°
2026-04-20 22:43 -34.51087 -58.29328 6204 ft 266 kts
2026-04-20 22:43 -34.49259 -58.29727 7104 ft 273 kts 341°
2026-04-20 22:43 -34.47477 -58.30562 8006 ft 276 kts 340°
2026-04-20 22:43 -34.45687 -58.31425 8862 ft 279 kts 340°
2026-04-20 22:44 -34.43872 -58.32308 9688 ft 283 kts 339°
2026-04-20 22:44 -34.42028 -58.33199 10359 ft 292 kts 339°
2026-04-20 22:44 -34.40063 -58.34148 10601 ft 316 kts 338°
2026-04-20 22:44 -34.37970 -58.35156 11040 ft 329 kts 338°
2026-04-20 22:45 -34.35826 -58.36183 11715 ft 334 kts 338°
2026-04-20 22:45 -34.33652 -58.37217 12447 ft 337 kts 338°
2026-04-20 22:45 -34.31452 -58.38264 13172 ft 341 kts 337°
2026-04-20 22:45 -34.29242 -58.39318 13862 ft 344 kts 337°
2026-04-20 22:46 -34.27001 -58.40382 14535 ft 347 kts 336°
2026-04-20 22:46 -34.24749 -58.41450 15189 ft 350 kts 336°
2026-04-20 22:46 -34.22475 -58.42531 15840 ft 353 kts 336°
2026-04-20 22:46 -34.20180 -58.43624 16466 ft 356 kts 335°
2026-04-20 22:47 -34.17869 -58.44726 17094 ft 358 kts 335°
2026-04-20 22:47 -34.15539 -58.45834 17687 ft 361 kts 335°
2026-04-20 22:47 -34.13187 -58.46949 18282 ft 364 kts 335°
2026-04-20 22:47 -34.10817 -58.48069 18889 ft 367 kts 335°
2026-04-20 22:48 -34.08432 -58.49198 19484 ft 370 kts 335°
2026-04-20 22:48 -34.06027 -58.50337 20074 ft 373 kts 335°
2026-04-20 22:48 -34.03603 -58.51482 20645 ft 375 kts 335°
2026-04-20 22:48 -34.01163 -58.52636 21180 ft 378 kts 335°
2026-04-20 22:49 -33.98705 -58.53798 21697 ft 381 kts 335°
2026-04-20 22:49 -33.96231 -58.54966 22186 ft 384 kts 335°
2026-04-20 22:49 -33.93736 -58.56144 22679 ft 387 kts 335°
2026-04-20 22:49 -33.91173 -58.57180 23133 ft 392 kts 343°
2026-04-20 22:50 -33.88447 -58.57646 23584 ft 400 kts 353°
2026-04-20 22:50 -33.85655 -58.57764 24038 ft 403 kts 354°
2026-04-20 22:50 -33.82847 -58.57880 24497 ft 405 kts 354°
2026-04-20 22:50 -33.80022 -58.57998 24948 ft 407 kts 353°
2026-04-20 22:51 -33.77184 -58.58120 25396 ft 409 kts 353°
2026-04-20 22:51 -33.74333 -58.58247 25837 ft 411 kts 353°
2026-04-20 22:51 -33.71468 -58.58373 26273 ft 413 kts 353°
2026-04-20 22:51 -33.68590 -58.58501 26705 ft 414 kts 353°
2026-04-20 22:52 -33.65702 -58.58628 27118 ft 416 kts 352°
2026-04-20 22:52 -33.62836 -58.58755 27533 ft 417 kts 352°
2026-04-20 22:52 -33.59897 -58.58855 27923 ft 420 kts 355°
2026-04-20 22:52 -33.56962 -58.58655 28272 ft 425 kts 358°
2026-04-20 22:53 -33.54011 -58.58390 28636 ft 426 kts 358°
2026-04-20 22:53 -33.51048 -58.58099 28996 ft 427 kts 358°
2026-04-20 22:53 -33.48075 -58.57795 29332 ft 429 kts 358°
2026-04-20 22:53 -33.45089 -58.57489 29697 ft 432 kts 358°
2026-04-20 22:54 -33.42096 -58.57186 30061 ft 433 kts 358°
2026-04-20 22:54 -33.39127 -58.56893 30422 ft 434 kts 358°
2026-04-20 22:54 -33.36111 -58.56606 30801 ft 435 kts 358°
2026-04-20 22:54 -33.33092 -58.56327 31251 ft 434 kts 357°
2026-04-20 22:55 -33.30093 -58.56047 31810 ft 430 kts 357°
2026-04-20 22:55 -33.27120 -58.55765 32369 ft 427 kts 357°
2026-04-20 22:55 -33.24174 -58.55481 32928 ft 423 kts 357°
2026-04-20 22:55 -33.21254 -58.55202 33485 ft 419 kts 357°
2026-04-20 22:56 -33.18354 -58.54926 34021 ft 415 kts 356°
2026-04-20 22:56 -33.15488 -58.54652 34559 ft 412 kts 356°
2026-04-20 22:56 -33.12636 -58.54379 35028 ft 410 kts 356°
2026-04-20 22:56 -33.09804 -58.54112 35471 ft 407 kts 356°
2026-04-20 22:57 -33.06987 -58.53846 35891 ft 405 kts 356°
2026-04-20 22:57 -33.04182 -58.53582 36271 ft 404 kts 356°
2026-04-20 22:57 -33.01384 -58.53319 36619 ft 403 kts 356°
2026-04-20 22:57 -32.98595 -58.53055 36898 ft 402 kts 356°
2026-04-20 22:58 -32.93044 -58.52529 36970 ft 399 kts 356°
2026-04-20 22:58 -32.87529 -58.52001 36971 ft 396 kts 356°
2026-04-20 22:59 -32.82041 -58.51485 36981 ft 396 kts 356°
2026-04-20 22:59 -32.76546 -58.50974 36979 ft 396 kts 356°
2026-04-20 23:00 -32.71039 -58.50450 36980 ft 397 kts 356°
2026-04-20 23:00 -32.65538 -58.49935 36981 ft 397 kts 356°
2026-04-20 23:01 -32.60023 -58.49425 36984 ft 397 kts 356°
2026-04-20 23:01 -32.54549 -58.48911 36981 ft 397 kts 356°
2026-04-20 23:02 -32.49037 -58.48386 36978 ft 397 kts 356°
2026-04-20 23:02 -32.43524 -58.47872 36974 ft 397 kts 356°
2026-04-20 23:03 -32.38009 -58.47359 36973 ft 398 kts 356°
2026-04-20 23:03 -32.32488 -58.46847 36975 ft 398 kts 356°
2026-04-20 23:04 -32.26965 -58.46338 36976 ft 398 kts 356°
2026-04-20 23:04 -32.21440 -58.45818 36971 ft 398 kts 356°
2026-04-20 23:05 -32.15897 -58.45301 36972 ft 399 kts 356°
2026-04-20 23:05 -32.10357 -58.44792 36972 ft 399 kts 356°
2026-04-20 23:06 -32.04810 -58.44283 36973 ft 400 kts 356°
2026-04-20 23:06 -31.99295 -58.43769 36975 ft 400 kts 356°
2026-04-20 23:07 -31.93734 -58.43246 36974 ft 400 kts 356°
2026-04-20 23:07 -31.88176 -58.42728 36976 ft 400 kts 356°
2026-04-20 23:08 -31.82618 -58.42217 36978 ft 401 kts 356°
2026-04-20 23:08 -31.77051 -58.41705 36980 ft 401 kts 356°
2026-04-20 23:09 -31.71483 -58.41192 36984 ft 401 kts 356°
2026-04-20 23:09 -31.65914 -58.40683 36983 ft 401 kts 356°
2026-04-20 23:10 -31.60338 -58.40179 36984 ft 402 kts 356°
2026-04-20 23:10 -31.54767 -58.39668 36986 ft 402 kts 356°
2026-04-20 23:11 -31.49184 -58.39155 36990 ft 403 kts 357°
2026-04-20 23:11 -31.43590 -58.38637 36992 ft 403 kts 356°
2026-04-20 23:12 -31.38002 -58.38123 36993 ft 403 kts 357°
2026-04-20 23:12 -31.32411 -58.37615 36990 ft 403 kts 357°
2026-04-20 23:13 -31.26854 -58.37114 36986 ft 403 kts 357°
2026-04-20 23:13 -31.21252 -58.36612 36984 ft 404 kts 357°
2026-04-20 23:14 -31.15646 -58.36103 36981 ft 404 kts 357°
2026-04-20 23:14 -31.10035 -58.35588 36981 ft 405 kts 357°
2026-04-20 23:15 -31.04418 -58.35075 36979 ft 405 kts 357°
2026-04-20 23:15 -30.98793 -58.34560 36977 ft 406 kts 357°
2026-04-20 23:16 -30.93160 -58.34050 36977 ft 406 kts 357°
2026-04-20 23:16 -30.87528 -58.33545 36976 ft 407 kts 357°
2026-04-20 23:17 -30.81875 -58.33034 36976 ft 407 kts 358°
2026-04-20 23:17 -30.76227 -58.32520 36975 ft 408 kts 358°
2026-04-20 23:18 -30.70563 -58.32013 36973 ft 408 kts 358°
2026-04-20 23:18 -30.64902 -58.31505 36967 ft 408 kts 358°
2026-04-20 23:19 -30.59240 -58.30954 36962 ft 412 kts
2026-04-20 23:19 -30.53568 -58.29868 36961 ft 413 kts
2026-04-20 23:20 -30.47885 -58.28767 36961 ft 414 kts
2026-04-20 23:20 -30.42195 -58.27667 36962 ft 415 kts
2026-04-20 23:21 -30.36499 -58.26567 36963 ft 415 kts
2026-04-20 23:21 -30.30793 -58.25466 36963 ft 416 kts
2026-04-20 23:22 -30.25076 -58.24376 36965 ft 416 kts
2026-04-20 23:22 -30.19353 -58.23281 36968 ft 417 kts
2026-04-20 23:23 -30.13625 -58.22174 36972 ft 418 kts
2026-04-20 23:23 -30.07908 -58.21073 36976 ft 418 kts
2026-04-20 23:24 -30.02162 -58.19974 36983 ft 418 kts
2026-04-20 23:24 -29.96418 -58.18882 36982 ft 418 kts
2026-04-20 23:25 -29.90673 -58.17791 36983 ft 419 kts
2026-04-20 23:25 -29.85899 -58.16874 36983 ft 419 kts
2026-04-20 23:26 -29.79176 -58.15571 36985 ft 419 kts
2026-04-20 23:26 -29.74405 -58.14586 36986 ft 419 kts
2026-04-20 23:27 -29.68665 -58.13360 36986 ft 419 kts
2026-04-20 23:27 -29.62918 -58.12143 36985 ft 419 kts
2026-04-20 23:28 -29.57179 -58.10950 36986 ft 420 kts
2026-04-20 23:28 -29.51425 -58.09759 36983 ft 420 kts
2026-04-20 23:29 -29.45675 -58.08562 36983 ft 420 kts
2026-04-20 23:29 -29.39926 -58.07348 36983 ft 421 kts
2026-04-20 23:30 -29.34231 -58.05878 36981 ft 423 kts
2026-04-20 23:30 -29.28508 -58.04275 36979 ft 423 kts
2026-04-20 23:31 -29.22779 -58.02724 36975 ft 423 kts
2026-04-20 23:31 -29.17039 -58.01221 36974 ft 423 kts
2026-04-20 23:32 -29.11294 -57.99725 36969 ft 424 kts
2026-04-20 23:32 -29.05527 -57.98209 36954 ft 426 kts
2026-04-20 23:33 -28.99737 -57.96695 36950 ft 428 kts
2026-04-20 23:33 -28.93920 -57.95169 36951 ft 430 kts
2026-04-20 23:34 -28.88081 -57.93651 36951 ft 431 kts
2026-04-20 23:34 -28.82228 -57.92140 36946 ft 431 kts
2026-04-20 23:35 -28.73421 -57.89832 36948 ft 434 kts
2026-04-20 23:36 -28.67523 -57.88286 36956 ft 435 kts
2026-04-20 23:36 -28.61606 -57.86752 36961 ft 436 kts
2026-04-20 23:37 -28.55688 -57.85228 36970 ft 438 kts
2026-04-20 23:37 -28.49763 -57.83687 36970 ft 436 kts
2026-04-20 23:38 -28.43849 -57.82157 36973 ft 436 kts
2026-04-20 23:38 -28.37969 -57.80629 36964 ft 437 kts
2026-04-20 23:39 -28.32035 -57.79094 36963 ft 437 kts
2026-04-20 23:39 -28.26103 -57.77559 36962 ft 438 kts
2026-04-20 23:40 -28.20166 -57.75982 36962 ft 438 kts
2026-04-20 23:40 -28.14238 -57.74414 36961 ft 438 kts
2026-04-20 23:41 -28.08302 -57.72857 36963 ft 438 kts
2026-04-20 23:41 -28.02365 -57.71300 36963 ft 438 kts
2026-04-20 23:42 -27.96463 -57.69763 36961 ft 438 kts
2026-04-20 23:42 -27.90522 -57.68221 36960 ft 438 kts
2026-04-20 23:43 -27.84575 -57.66674 36956 ft 439 kts
2026-04-20 23:43 -27.78620 -57.65125 36955 ft 439 kts
2026-04-20 23:44 -27.72658 -57.63565 36951 ft 440 kts
2026-04-20 23:44 -27.66683 -57.62005 36947 ft 441 kts
2026-04-20 23:45 -27.60700 -57.60447 36943 ft 441 kts
2026-04-20 23:45 -27.54703 -57.58881 36940 ft 442 kts
2026-04-20 23:46 -27.48704 -57.57328 36936 ft 443 kts
2026-04-20 23:46 -27.42685 -57.55894 36934 ft 438 kts 359°
2026-04-20 23:47 -27.36656 -57.55644 36922 ft 434 kts 355°
2026-04-20 23:47 -27.33613 -57.55567 36290 ft 440 kts 355°
2026-04-20 23:47 -27.30544 -57.55487 35531 ft 443 kts 355°
2026-04-20 23:47 -27.27445 -57.55404 34734 ft 447 kts 355°
2026-04-20 23:48 -27.24319 -57.55311 33928 ft 451 kts 355°
2026-04-20 23:48 -27.21173 -57.55211 33361 ft 449 kts 355°
2026-04-20 23:48 -27.18066 -57.55108 32843 ft 446 kts 355°
2026-04-20 23:48 -27.14973 -57.55009 32293 ft 443 kts 356°
2026-04-20 23:49 -27.11898 -57.54912 31748 ft 441 kts 355°
2026-04-20 23:49 -27.08877 -57.54822 31206 ft 437 kts 355°
2026-04-20 23:49 -27.05858 -57.54749 30672 ft 431 kts 355°
2026-04-20 23:49 -27.02865 -57.54674 30131 ft 429 kts 355°
2026-04-20 23:50 -26.99891 -57.54591 29596 ft 426 kts 356°
2026-04-20 23:50 -26.96935 -57.54497 29074 ft 423 kts 356°
2026-04-20 23:50 -26.94000 -57.54406 28544 ft 420 kts 356°
2026-04-20 23:50 -26.91088 -57.54325 28029 ft 417 kts 355°
2026-04-20 23:51 -26.88197 -57.54243 27517 ft 414 kts 356°
2026-04-20 23:51 -26.85326 -57.54160 27011 ft 411 kts 355°
2026-04-20 23:51 -26.82477 -57.54097 26522 ft 408 kts 355°
2026-04-20 23:51 -26.79649 -57.54056 26044 ft 405 kts 354°
2026-04-20 23:52 -26.76844 -57.54030 25575 ft 402 kts 354°
2026-04-20 23:52 -26.74067 -57.54008 25127 ft 398 kts 354°
2026-04-20 23:52 -26.71307 -57.53989 24675 ft 395 kts 354°
2026-04-20 23:52 -26.68562 -57.53964 24229 ft 392 kts 354°
2026-04-20 23:53 -26.65853 -57.53937 23783 ft 388 kts 354°
2026-04-20 23:53 -26.63159 -57.53908 23316 ft 386 kts 354°
2026-04-20 23:53 -26.60488 -57.53876 22865 ft 382 kts 354°
2026-04-20 23:53 -26.57838 -57.53845 22386 ft 379 kts 354°
2026-04-20 23:54 -26.55207 -57.53814 21916 ft 377 kts 354°
2026-04-20 23:54 -26.52596 -57.53785 21414 ft 374 kts 354°
2026-04-20 23:54 -26.50001 -57.53760 20939 ft 371 kts 354°
2026-04-20 23:54 -26.47438 -57.53734 20612 ft 364 kts 354°
2026-04-20 23:55 -26.44914 -57.53708 20334 ft 361 kts 354°
2026-04-20 23:55 -26.42414 -57.53684 20044 ft 357 kts 354°
2026-04-20 23:55 -26.39935 -57.53659 19750 ft 355 kts 354°
2026-04-20 23:55 -26.37475 -57.53631 19465 ft 352 kts 355°
2026-04-20 23:56 -26.35035 -57.53599 19180 ft 349 kts 355°
2026-04-20 23:56 -26.32612 -57.53570 18898 ft 347 kts 355°
2026-04-20 23:56 -26.30240 -57.53540 18628 ft 344 kts 355°
2026-04-20 23:56 -26.27855 -57.53513 18352 ft 341 kts 355°
2026-04-20 23:57 -26.25490 -57.53492 18074 ft 338 kts 354°
2026-04-20 23:57 -26.23147 -57.53475 17801 ft 335 kts 354°
2026-04-20 23:57 -26.20819 -57.53454 17529 ft 334 kts 355°
2026-04-20 23:57 -26.18503 -57.53430 17255 ft 332 kts 355°
2026-04-20 23:58 -26.16190 -57.53411 16985 ft 332 kts 355°
2026-04-20 23:58 -26.13891 -57.53382 16725 ft 329 kts 355°
2026-04-20 23:58 -26.11608 -57.53356 16443 ft 325 kts 355°
2026-04-20 23:58 -26.09350 -57.53328 16176 ft 323 kts 355°
2026-04-20 23:59 -26.07089 -57.53155 15919 ft 329 kts
2026-04-20 23:59 -26.04825 -57.52791 15659 ft 328 kts
2026-04-20 23:59 -26.02566 -57.52429 15390 ft 326 kts
2026-04-20 23:59 -26.00335 -57.52059 15124 ft 322 kts
2026-04-21 00:00 -25.98122 -57.51698 14862 ft 321 kts
2026-04-21 00:00 -25.95908 -57.51343 14604 ft 321 kts
2026-04-21 00:00 -25.93703 -57.50984 14338 ft 319 kts
2026-04-21 00:00 -25.91509 -57.50630 14083 ft 318 kts
2026-04-21 00:01 -25.89331 -57.50277 13822 ft 314 kts
2026-04-21 00:01 -25.87205 -57.49933 13582 ft 312 kts
2026-04-21 00:01 -25.85048 -57.49586 13328 ft 313 kts
2026-04-21 00:01 -25.82900 -57.49237 13077 ft 310 kts
2026-04-21 00:02 -25.80770 -57.48891 12836 ft 308 kts
2026-04-21 00:02 -25.78652 -57.48546 12582 ft 307 kts
2026-04-21 00:02 -25.76544 -57.48200 12331 ft 305 kts
2026-04-21 00:02 -25.74474 -57.47862 12078 ft 297 kts
2026-04-21 00:03 -25.72452 -57.47531 11829 ft 291 kts
2026-04-21 00:03 -25.70473 -57.47211 11579 ft 284 kts
2026-04-21 00:03 -25.68533 -57.46898 11327 ft 279 kts
2026-04-21 00:03 -25.66630 -57.46590 11078 ft 274 kts
2026-04-21 00:04 -25.64757 -57.46287 10824 ft 270 kts
2026-04-21 00:04 -25.62914 -57.45988 10570 ft 266 kts
2026-04-21 00:04 -25.61096 -57.45693 10327 ft 262 kts
2026-04-21 00:04 -25.59303 -57.45403 10077 ft 258 kts
2026-04-21 00:05 -25.57546 -57.45120 9932 ft 251 kts
2026-04-21 00:05 -25.55861 -57.44849 9920 ft 238 kts
2026-04-21 00:05 -25.54257 -57.44592 9918 ft 229 kts
2026-04-21 00:05 -25.52684 -57.44334 9921 ft 228 kts
2026-04-21 00:06 -25.51115 -57.44081 9921 ft 228 kts
2026-04-21 00:06 -25.49548 -57.43830 9927 ft 228 kts
2026-04-21 00:06 -25.47982 -57.43579 9927 ft 228 kts
2026-04-21 00:06 -25.46412 -57.43327 9922 ft 228 kts
2026-04-21 00:07 -25.44841 -57.43074 9918 ft 228 kts
2026-04-21 00:07 -25.43290 -57.42822 9917 ft 228 kts
2026-04-21 00:07 -25.41718 -57.42567 9916 ft 228 kts
2026-04-21 00:07 -25.40143 -57.42312 9916 ft 229 kts
2026-04-21 00:08 -25.38569 -57.42058 9916 ft 228 kts
2026-04-21 00:08 -25.36997 -57.41805 9916 ft 228 kts
2026-04-21 00:08 -25.35423 -57.41534 9916 ft 229 kts
2026-04-21 00:08 -25.33858 -57.41181 9916 ft 230 kts 10°
2026-04-21 00:09 -25.32291 -57.40796 9915 ft 231 kts 11°
2026-04-21 00:09 -25.30724 -57.40402 9915 ft 231 kts 11°
2026-04-21 00:09 -25.29160 -57.40011 9915 ft 230 kts 11°
2026-04-21 00:09 -25.27599 -57.39621 9915 ft 230 kts 11°
2026-04-21 00:10 -25.26038 -57.39234 9916 ft 230 kts 11°
2026-04-21 00:10 -25.24472 -57.38851 9915 ft 231 kts 11°
2026-04-21 00:10 -25.22901 -57.38470 9916 ft 231 kts 10°
2026-04-21 00:10 -25.21328 -57.38090 9916 ft 231 kts 10°
2026-04-21 00:11 -25.19756 -57.37711 9906 ft 231 kts 10°
2026-04-21 00:11 -25.18719 -57.37459 9901 ft 230 kts 10°
2026-04-21 00:11 -25.16631 -57.36950 9897 ft 230 kts 10°
2026-04-21 00:11 -25.15595 -57.36699 9897 ft 230 kts 10°
2026-04-21 00:12 -25.14032 -57.36321 9896 ft 230 kts 10°
2026-04-21 00:12 -25.12467 -57.35945 9897 ft 230 kts 10°
2026-04-21 00:12 -25.10903 -57.35567 9896 ft 231 kts 10°
2026-04-21 00:12 -25.09331 -57.35189 9896 ft 230 kts 10°
2026-04-21 00:13 -25.07765 -57.34810 9896 ft 230 kts 10°
2026-04-21 00:13 -25.06198 -57.34429 9897 ft 230 kts 10°
2026-04-21 00:13 -25.04666 -57.33911 9892 ft 233 kts 27°
2026-04-21 00:13 -25.03530 -57.32618 9897 ft 244 kts 60°
2026-04-21 00:14 -25.03243 -57.30758 9900 ft 256 kts 93°
2026-04-21 00:14 -25.03555 -57.28807 9899 ft 259 kts 97°
2026-04-21 00:14 -25.03918 -57.26856 9897 ft 261 kts 100°
2026-04-21 00:14 -25.04766 -57.25094 9896 ft 268 kts 135°
2026-04-21 00:15 -25.06406 -57.24147 9897 ft 271 kts 172°
2026-04-21 00:15 -25.08239 -57.24399 9897 ft 266 kts 211°
2026-04-21 00:15 -25.09561 -57.25721 9898 ft 254 kts 246°
2026-04-21 00:15 -25.09987 -57.27543 9897 ft 243 kts 279°
2026-04-21 00:16 -25.09707 -57.29356 9898 ft 241 kts 287°
2026-04-21 00:16 -25.09374 -57.31171 9897 ft 241 kts 286°
2026-04-21 00:16 -25.09048 -57.32986 9897 ft 241 kts 286°
2026-04-21 00:16 -25.08729 -57.34778 9897 ft 241 kts 286°
2026-04-21 00:17 -25.08133 -57.36466 9852 ft 235 kts 309°
2026-04-21 00:17 -25.06896 -57.37657 9234 ft 243 kts 337°
2026-04-21 00:17 -25.05217 -57.38012 8567 ft 254 kts
2026-04-21 00:17 -25.03522 -57.37355 7886 ft 268 kts 34°
2026-04-21 00:18 -25.02348 -57.35750 7157 ft 278 kts 65°
2026-04-21 00:18 -25.02122 -57.33616 6406 ft 289 kts 94°
2026-04-21 00:18 -25.02456 -57.31417 5632 ft 293 kts 97°
2026-04-21 00:18 -25.02856 -57.29211 4846 ft 294 kts 99°
2026-04-21 00:19 -25.03273 -57.27021 4304 ft 286 kts 100°
2026-04-21 00:19 -25.03932 -57.25058 4169 ft 265 kts 124°
2026-04-21 00:19 -25.05251 -57.23790 4170 ft 243 kts 153°
2026-04-21 00:19 -25.06860 -57.23403 4176 ft 238 kts 182°
2026-04-21 00:20 -25.08429 -57.23906 4179 ft 237 kts 212°
2026-04-21 00:20 -25.09586 -57.25185 4180 ft 238 kts 241°
2026-04-21 00:20 -25.10052 -57.26912 4180 ft 236 kts 270°
2026-04-21 00:20 -25.09859 -57.28679 4182 ft 235 kts 282°
2026-04-21 00:21 -25.09554 -57.30433 4190 ft 227 kts 283°
2026-04-21 00:21 -25.09250 -57.32099 4280 ft 215 kts 283°
2026-04-21 00:21 -25.08959 -57.33690 4289 ft 209 kts 284°
2026-04-21 00:21 -25.08668 -57.35272 4292 ft 208 kts 284°
2026-04-21 00:22 -25.08363 -57.36833 4190 ft 207 kts 285°
2026-04-21 00:22 -25.08049 -57.38361 4092 ft 207 kts 284°
2026-04-21 00:22 -25.07731 -57.39910 3986 ft 207 kts 284°
2026-04-21 00:22 -25.07423 -57.41424 3919 ft 195 kts 284°
2026-04-21 00:23 -25.07137 -57.42838 3811 ft 182 kts 284°
2026-04-21 00:23 -25.06871 -57.44163 3722 ft 172 kts 284°
2026-04-21 00:23 -25.06624 -57.45411 3643 ft 163 kts 281°
2026-04-21 00:23 -25.06710 -57.46640 3571 ft 162 kts 247°
2026-04-21 00:24 -25.07356 -57.47637 3464 ft 161 kts 215°
2026-04-21 00:24 -25.08362 -57.48129 3203 ft 159 kts 188°
2026-04-21 00:24 -25.09450 -57.48385 2919 ft 161 kts 188°
2026-04-21 00:24 -25.10518 -57.48644 2682 ft 153 kts 188°
2026-04-21 00:25 -25.11527 -57.48889 2486 ft 146 kts 189°
2026-04-21 00:25 -25.12503 -57.49125 2277 ft 142 kts 189°
2026-04-21 00:25 -25.13461 -57.49357 2085 ft 140 kts 189°
2026-04-21 00:25 -25.14412 -57.49588 1899 ft 139 kts 189°
2026-04-21 00:26 -25.15354 -57.49816 1710 ft 143 kts 189°
2026-04-21 00:26 -25.16339 -57.50055 1518 ft 146 kts 190°
2026-04-21 00:26 -25.17340 -57.50301 1331 ft 148 kts 189°
2026-04-21 00:26 -25.18341 -57.50562 1100 ft 147 kts 191°
2026-04-21 00:27 -25.19336 -57.50792 882 ft 146 kts 191°
2026-04-21 00:27 -25.20325 -57.51032 741 ft 145 kts 190°
2026-04-21 00:27 -25.21310 -57.51272 584 ft 144 kts 191°
2026-04-21 00:27 -25.22291 -57.51507 379 ft 144 kts 190°
2026-04-21 00:28 -25.23229 -57.51724 274 ft 124 kts 192°
2026-04-21 00:28 -25.23811 -57.51869 276 ft 44 kts 191°
2026-04-21 00:28 -25.24070 -57.51932 281 ft 35 kts 193°
2026-04-21 00:28 -25.24218 -57.51969 283 ft 10 kts 190°
2026-04-21 00:29 -25.24260 -57.51934 282 ft 7 kts 113°
2026-04-21 00:29 -25.24272 -57.51876 282 ft 8 kts 103°
2026-04-21 00:29 -25.24286 -57.51814 279 ft 8 kts 103°
2026-04-21 00:29 -25.24297 -57.51754 279 ft 7 kts 101°
2026-04-21 00:30 -25.24307 -57.51703 279 ft 6 kts 101°
2026-04-21 00:30 -25.24296 -57.51666 279 ft 4 kts 42°
2026-04-21 00:30 -25.24274 -57.51654 279 ft 3 kts 26°
2026-04-21 00:30 -25.24253 -57.51642 279 ft 4 kts 26°
2026-04-21 00:31 -25.24228 -57.51627 279 ft 4 kts 36°
2026-04-21 00:31 -25.24224 -57.51593 279 ft 5 kts 103°
2026-04-21 00:31 -25.24233 -57.51552 281 ft 4 kts 103°
2026-04-21 00:31 -25.24234 -57.51547 279 ft 0 kts 103°